DW4776 Weather Reports


Display with metric or nautical units.
time (UTC)temp
F
wind
direction
speed
MPH
gust
MPH
rain 1hr
in
rain 24hr
in
rain mn
in
humidity
%
barometer
mb
20260503054544 47 326 5.0 9.0 0.00 0.00 0.00 64 1015.8
20260503053039 46 329 7.0 9.0 0.00 0.00 0.00 64 1016.0
20260503051537 47 310 2.0 6.0 0.00 0.00 0.00 60 1016.0
20260503050038 49 287 4.0 7.0 0.00 0.00 0.00 58 1016.0
20260503044538 51 271 3.0 4.0 0.00 0.00 0.00 53 1016.1
20260503043037 53 270 2.0 5.0 0.00 0.00 0.00 52 1016.0
20260503041537 54 270 5.0 9.0 0.00 0.00 0.00 51 1016.1
20260503040038 54 224 8.0 14.0 0.00 0.00 0.00 48 1015.9
20260503034537 55 94 1.0 2.0 0.00 0.00 0.00 45 1015.8
20260503033044 55 94 2.0 4.0 0.00 0.00 0.00 44 1015.9
20260503031537 56 20 2.0 3.0 0.00 0.00 0.00 43 1015.8
20260503030036 57 20 1.0 3.0 0.00 0.00 0.00 41 1015.7
20260503024540 58 20 1.0 4.0 0.00 0.00 0.00 39 1015.7
20260503023035 60 20 1.0 3.0 0.00 0.00 0.00 39 1015.7
20260503021545 62 0 0.0 1.0 0.00 0.00 0.00 38 1015.5
20260503020044 62 0 0.0 1.0 0.00 0.00 0.00 36 1015.5
20260503014605 63 0 0.0 3.0 0.00 0.00 0.00 36 1015.5
20260503013039 63 26 1.0 4.0 0.00 0.00 0.00 36 1015.6
20260503011547 63 351 3.0 5.0 0.00 0.00 0.00 36 1015.7
20260503010048 63 2 0.0 4.0 0.00 0.00 0.00 36 1015.8
20260503004547 63 2 2.0 6.0 0.00 0.00 0.00 36 1016.0
20260503003037 63 12 2.0 5.0 0.00 0.00 0.00 36 1016.1
20260503001538 63 12 2.0 5.0 0.00 0.00 0.00 37 1016.3
20260503000037 63 29 3.0 8.0 0.00 0.00 0.00 36 1016.3
20260502234544 63 19 4.0 8.0 0.00 0.00 0.00 36 1016.4
20260502233043 63 324 1.0 7.0 0.00 0.00 0.00 36 1016.6
20260502231539 63 50 2.0 6.0 0.00 0.00 0.00 36 1016.8
20260502230034 63 67 3.0 6.0 0.00 0.00 0.00 37 1017.0
20260502224537 63 12 4.0 6.0 0.00 0.00 0.00 36 1017.2
20260502223040 63 353 3.0 12.0 0.00 0.00 0.00 36 1017.4
20260502221534 63 23 3.0 12.0 0.00 0.00 0.00 37 1017.6
20260502220039 63 25 3.0 10.0 0.00 0.00 0.00 36 1017.9
20260502214538 62 343 5.0 9.0 0.00 0.00 0.00 37 1018.1
20260502213037 63 23 2.0 3.0 0.00 0.00 0.00 36 1018.2
20260502211543 62 218 3.0 8.0 0.00 0.00 0.00 37 1018.3
20260502210040 62 143 1.0 5.0 0.00 0.00 0.00 38 1018.6
20260502204536 62 83 1.0 11.0 0.00 0.00 0.00 39 1018.6
20260502203039 62 45 7.0 13.0 0.00 0.00 0.00 39 1018.7
20260502201538 62 56 5.0 11.0 0.00 0.00 0.00 39 1018.7
20260502200038 61 351 5.0 11.0 0.00 0.00 0.00 40 1019.0
20260502194538 60 40 6.0 14.0 0.00 0.00 0.00 42 1019.2
20260502193041 59 66 8.0 14.0 0.00 0.00 0.00 45 1019.4
20260502191536 58 45 10.0 17.0 0.00 0.00 0.00 44 1019.5
20260502190041 58 25 8.0 14.0 0.00 0.00 0.00 44 1019.6
20260502184549 58 4 7.0 13.0 0.00 0.00 0.00 44 1019.6
20260502183050 58 357 8.0 15.0 0.00 0.00 0.00 44 1019.7
20260502181542 58 2 12.0 16.0 0.00 0.00 0.00 44 1019.8
20260502163046 59 356 11.0 19.0 0.00 0.00 0.00 41 1019.7
20260502161542 59 10 13.0 19.0 0.00 0.00 0.00 41 1019.7
20260502151543 58 45 14.0 19.0 0.00 0.00 0.00 44 1019.6
20260502123040 48 21 7.0 11.0 0.00 0.00 0.00 55 1018.6
20260502121537 48 4 9.0 13.0 0.00 0.00 0.00 54 1018.7
20260502114544 48 9 10.0 15.0 0.00 0.00 0.00 53 1018.4
20260502113041 49 20 11.0 16.0 0.00 0.00 0.00 52 1018.0
20260502111537 50 29 13.0 20.0 0.00 0.00 0.00 51 1018.0
20260502110039 50 35 13.0 19.0 0.00 0.00 0.00 51 1017.6
20260502104547 50 25 13.0 20.0 0.00 0.00 0.00 49 1017.3
20260502103039 50 36 13.0 20.0 0.00 0.00 0.00 48 1017.0
20260502101607 51 16 14.0 18.0 0.00 0.00 0.00 48 1016.8
20260502070053 55 50 3.0 8.0 0.00 0.00 0.00 32 1015.4
20260502064539 58 29 5.0 10.0 0.00 0.00 0.00 29 1015.3
20260502063039 57 33 6.0 11.0 0.00 0.00 0.00 30 1015.4